Tracking 30986 objects as of 9-Jul-2025
HD Live streaming from Space Station
objects crossing your sky now

OBJECT K


OBJECT K is no longer on orbit


NORAD ID: 43858
Int'l Code: 2018-104K
Perigee: N/A
Apogee: N/A
Inclination: N/A
Period: N/A
Semi major axis: N/A
RCS: N/A
Launch date: December 16, 2018
Source: United States (US)
Launch site: Rocket Lab Launch Complex (RLLC)
Decay date: 2024-07-02
Your satellite tracking list
Your tracking list is empty




NASA's NSSDC Master Catalog

Two Line Element Set (TLE):
1 43858U 18104K   24184.45598918  .13534512 -15221-5  22955-3 0  9997
2 43858  84.9788 261.7450 0015541 269.2542  90.6986 16.46849517309589
Source of the keplerian elements: Caltech